| time (UTC) | temp F | wind direction | speed MPH | gust MPH | rain 1hr in | rain 24hr in | rain mn in | humidity % | barometer mb |
| 20260510191010 | 59 | 77 | 9.0 | 11.0 | 0.00 | 0.00 | 0.00 | 49 | |
| 20260510190511 | 59 | 78 | 9.0 | 9.0 | 0.00 | 0.00 | 0.00 | 49 | |
| 20260510190010 | 59 | 85 | 7.0 | 9.0 | 0.00 | 0.00 | 0.00 | 49 | |
| 20260510185510 | 59 | 93 | 9.0 | 9.0 | 0.00 | 0.00 | 0.00 | 49 | |
| 20260510185011 | 59 | 97 | 9.0 | 9.0 | 0.00 | 0.00 | 0.00 | 49 | |
| 20260510184510 | 59 | 93 | 9.0 | 11.0 | 0.00 | 0.00 | 0.00 | 49 | |
| 20260510184004 | 59 | 92 | 11.0 | 11.0 | 0.00 | 0.00 | 0.00 | 49 | |
| 20260510183510 | 59 | 88 | 11.0 | 11.0 | 0.00 | 0.00 | 0.00 | 50 | |
| 20260510183009 | 59 | 90 | 9.0 | 11.0 | 0.00 | 0.00 | 0.00 | 50 | |
| 20260510182511 | 59 | 88 | 11.0 | 11.0 | 0.00 | 0.00 | 0.00 | 49 | |
| 20260510182012 | 59 | 92 | 11.0 | 13.0 | 0.00 | 0.00 | 0.00 | 49 | |
| 20260510181510 | 59 | 92 | 11.0 | 11.0 | 0.00 | 0.00 | 0.00 | 50 | |
| 20260510180510 | 59 | 92 | 11.0 | 13.0 | 0.00 | 0.00 | 0.00 | 49 | |
| 20260510180010 | 59 | 91 | 11.0 | 13.0 | 0.00 | 0.00 | 0.00 | 50 | |
| 20260510175511 | 59 | 90 | 9.0 | 11.0 | 0.00 | 0.00 | 0.00 | 50 | |
| 20260510175010 | 59 | 89 | 11.0 | 11.0 | 0.00 | 0.00 | 0.00 | 50 | |
| 20260510174511 | 59 | 87 | 11.0 | 13.0 | 0.00 | 0.00 | 0.00 | 50 | |
| 20260510174010 | 61 | 98 | 13.0 | 13.0 | 0.00 | 0.00 | 0.00 | 50 | |
| 20260510173511 | 61 | 84 | 13.0 | 13.0 | 0.00 | 0.00 | 0.00 | 50 | |
| 20260510173011 | 61 | 89 | 11.0 | 13.0 | 0.00 | 0.00 | 0.00 | 50 | |
| 20260510172511 | 61 | 83 | 13.0 | 13.0 | 0.00 | 0.00 | 0.00 | 49 | |
| 20260510172012 | 61 | 79 | 13.0 | 16.0 | 0.00 | 0.00 | 0.00 | 49 | |
| 20260510171510 | 61 | 87 | 13.0 | 13.0 | 0.00 | 0.00 | 0.00 | 49 | |
| 20260510171009 | 61 | 84 | 11.0 | 16.0 | 0.00 | 0.00 | 0.00 | 49 | |
| 20260510170510 | 61 | 85 | 13.0 | 16.0 | 0.00 | 0.00 | 0.00 | 49 | |
| 20260510170011 | 61 | 84 | 11.0 | 13.0 | 0.00 | 0.00 | 0.00 | 49 | |
| 20260510165511 | 61 | 85 | 13.0 | 13.0 | 0.00 | 0.00 | 0.00 | 48 | |
| 20260510165011 | 61 | 78 | 13.0 | 16.0 | 0.00 | 0.00 | 0.00 | 47 | |
| 20260510164511 | 61 | 74 | 13.0 | 13.0 | 0.00 | 0.00 | 0.00 | 47 | |
| 20260510164011 | 61 | 99 | 11.0 | 13.0 | 0.00 | 0.00 | 0.00 | 48 | |
| 20260510163510 | 61 | 78 | 11.0 | 16.0 | 0.00 | 0.00 | 0.00 | 47 | |
| 20260510163011 | 63 | 95 | 13.0 | 16.0 | 0.00 | 0.00 | 0.00 | 47 | |
| 20260510162512 | 63 | 82 | 13.0 | 13.0 | 0.00 | 0.00 | 0.00 | 47 | |
| 20260510162011 | 63 | 84 | 11.0 | 13.0 | 0.00 | 0.00 | 0.00 | 48 | |
| 20260510161504 | 63 | 77 | 13.0 | 16.0 | 0.00 | 0.00 | 0.00 | 48 | |
| 20260510161010 | 63 | 77 | 11.0 | 13.0 | 0.00 | 0.00 | 0.00 | 48 | |
| 20260510160510 | 63 | 91 | 11.0 | 13.0 | 0.00 | 0.00 | 0.00 | 48 | |
| 20260510160011 | 63 | 90 | 7.0 | 9.0 | 0.00 | 0.00 | 0.00 | 48 | |
| 20260510155510 | 63 | 87 | 11.0 | 13.0 | 0.00 | 0.00 | 0.00 | 48 | |
| 20260510155010 | 61 | 95 | 11.0 | 13.0 | 0.00 | 0.00 | 0.00 | 49 | |
| 20260510154510 | 63 | 103 | 9.0 | 11.0 | 0.00 | 0.00 | 0.00 | 47 | |
| 20260510154011 | 63 | 99 | 11.0 | 11.0 | 0.00 | 0.00 | 0.00 | 47 | |
| 20260510153511 | 63 | 98 | 11.0 | 13.0 | 0.00 | 0.00 | 0.00 | 48 | |
| 20260510153010 | 63 | 91 | 11.0 | 13.0 | 0.00 | 0.00 | 0.00 | 49 | |
| 20260510152510 | 63 | 90 | 11.0 | 13.0 | 0.00 | 0.00 | 0.00 | 48 | |
| 20260510152016 | 63 | 80 | 9.0 | 11.0 | 0.00 | 0.00 | 0.00 | 48 | |
| 20260510151510 | 63 | 93 | 11.0 | 13.0 | 0.00 | 0.00 | 0.00 | 48 | |
| 20260510151009 | 63 | 104 | 11.0 | 16.0 | 0.00 | 0.00 | 0.00 | 47 | |
| 20260510150510 | 63 | 83 | 9.0 | 11.0 | 0.00 | 0.00 | 0.00 | 47 | |
| 20260510150011 | 63 | 104 | 7.0 | 7.0 | 0.00 | 0.00 | 0.00 | 47 | |
| 20260510145510 | 63 | 105 | 9.0 | 11.0 | 0.00 | 0.00 | 0.00 | 47 | |
| 20260510145010 | 63 | 112 | 11.0 | 13.0 | 0.00 | 0.00 | 0.00 | 47 | |
| 20260510144511 | 63 | 108 | 9.0 | 11.0 | 0.00 | 0.00 | 0.00 | 48 | |
| 20260510144010 | 63 | 75 | 9.0 | 11.0 | 0.00 | 0.00 | 0.00 | 49 | |
| 20260510143510 | 63 | 72 | 9.0 | 11.0 | 0.00 | 0.00 | 0.00 | 49 | |
| 20260510143011 | 63 | 109 | 7.0 | 9.0 | 0.00 | 0.00 | 0.00 | 49 | |
| 20260510142510 | 63 | 89 | 11.0 | 13.0 | 0.00 | 0.00 | 0.00 | 49 | |
| 20260510142012 | 63 | 103 | 4.0 | 7.0 | 0.00 | 0.00 | 0.00 | 50 | |
| 20260510141515 | 63 | 80 | 2.0 | 4.0 | 0.00 | 0.00 | 0.00 | 51 | |
| 20260510141010 | 63 | 76 | 7.0 | 9.0 | 0.00 | 0.00 | 0.00 | 50 | |
| 20260510140510 | 63 | 88 | 4.0 | 4.0 | 0.00 | 0.00 | 0.00 | 50 | |
| 20260510140011 | 63 | 119 | 7.0 | 9.0 | 0.00 | 0.00 | 0.00 | 50 | |
| 20260510135511 | 61 | 99 | 7.0 | 7.0 | 0.00 | 0.00 | 0.00 | 51 | |
| 20260510135011 | 63 | 91 | 7.0 | 9.0 | 0.00 | 0.00 | 0.00 | 51 | |
| 20260510134511 | 63 | 116 | 4.0 | 4.0 | 0.00 | 0.00 | 0.00 | 51 | |
| 20260510134010 | 61 | 91 | 7.0 | 11.0 | 0.00 | 0.00 | 0.00 | 50 | |
| 20260510133511 | 63 | 86 | 7.0 | 11.0 | 0.00 | 0.00 | 0.00 | 49 | |
| 20260510133010 | 63 | 98 | 4.0 | 4.0 | 0.00 | 0.00 | 0.00 | 51 | |
| 20260510132511 | 61 | 96 | 9.0 | 11.0 | 0.00 | 0.00 | 0.00 | 50 | |
| 20260510132010 | 63 | 82 | 4.0 | 11.0 | 0.00 | 0.00 | 0.00 | 52 | |
| 20260510131510 | 63 | 86 | 4.0 | 7.0 | 0.00 | 0.00 | 0.00 | 51 | |
| 20260510131010 | 63 | 106 | 4.0 | 7.0 | 0.00 | 0.00 | 0.00 | 51 | |
| 20260510130510 | 63 | 117 | 9.0 | 9.0 | 0.00 | 0.00 | 0.00 | 53 | |
| 20260510130010 | 61 | 101 | 9.0 | 11.0 | 0.00 | 0.00 | 0.00 | 53 | |
| 20260510125510 | 63 | 83 | 7.0 | 11.0 | 0.00 | 0.00 | 0.00 | 53 | |
| 20260510125010 | 63 | 102 | 7.0 | 11.0 | 0.00 | 0.00 | 0.00 | 55 | |
| 20260510124510 | 61 | 75 | 9.0 | 11.0 | 0.00 | 0.00 | 0.00 | 56 | |
| 20260510124011 | 61 | 84 | 11.0 | 13.0 | 0.00 | 0.00 | 0.00 | 55 | |
| 20260510123510 | 61 | 89 | 7.0 | 9.0 | 0.00 | 0.00 | 0.00 | 57 | |
| 20260510123011 | 61 | 67 | 9.0 | 11.0 | 0.00 | 0.00 | 0.00 | 57 | |
| 20260510122510 | 61 | 52 | 4.0 | 7.0 | 0.00 | 0.00 | 0.00 | 57 | |
| 20260510122015 | 61 | 56 | 4.0 | 9.0 | 0.00 | 0.00 | 0.00 | 57 | |
| 20260510121510 | 61 | 106 | 7.0 | 9.0 | 0.00 | 0.00 | 0.00 | 56 | |
| 20260510121010 | 59 | 73 | 4.0 | 7.0 | 0.00 | 0.00 | 0.00 | 57 | |
| 20260510120510 | 61 | 81 | 7.0 | 9.0 | 0.00 | 0.00 | 0.00 | 58 | |
| 20260510120010 | 59 | 76 | 4.0 | 9.0 | 0.00 | 0.00 | 0.00 | 58 | |
| 20260510115510 | 59 | 102 | 9.0 | 11.0 | 0.00 | 0.00 | 0.00 | 57 | |
| 20260510115011 | 59 | 90 | 9.0 | 11.0 | 0.00 | 0.00 | 0.00 | 58 | |
| 20260510114510 | 59 | 91 | 9.0 | 9.0 | 0.00 | 0.00 | 0.00 | 58 | |
| 20260510114010 | 59 | 89 | 9.0 | 11.0 | 0.00 | 0.00 | 0.00 | 58 | |
| 20260510113511 | 59 | 121 | 9.0 | 11.0 | 0.00 | 0.00 | 0.00 | 59 | |
| 20260510113011 | 59 | 92 | 9.0 | 11.0 | 0.00 | 0.00 | 0.00 | 59 | |
| 20260510112510 | 59 | 99 | 11.0 | 13.0 | 0.00 | 0.00 | 0.00 | 59 | |
| 20260510112014 | 59 | 82 | 7.0 | 9.0 | 0.00 | 0.00 | 0.00 | 60 | |
| 20260510111510 | 57 | 83 | 9.0 | 13.0 | 0.00 | 0.00 | 0.00 | 60 | |
| 20260510111011 | 57 | 96 | 7.0 | 9.0 | 0.00 | 0.00 | 0.00 | 61 | |
| 20260510110510 | 57 | 117 | 9.0 | 11.0 | 0.00 | 0.00 | 0.00 | 60 | |
| 20260510110010 | 59 | 93 | 11.0 | 13.0 | 0.00 | 0.00 | 0.00 | 59 | |
| 20260510105511 | 59 | 92 | 9.0 | 11.0 | 0.00 | 0.00 | 0.00 | 60 | |
| 20260510105011 | 57 | 90 | 11.0 | 16.0 | 0.00 | 0.00 | 0.00 | 60 | |
| 20260510104511 | 59 | 94 | 7.0 | 9.0 | 0.00 | 0.00 | 0.00 | 63 | |
| 20260510104010 | 59 | 89 | 11.0 | 13.0 | 0.00 | 0.00 | 0.00 | 60 | |
| 20260510103511 | 59 | 100 | 11.0 | 16.0 | 0.00 | 0.00 | 0.00 | 58 | |
| 20260510103010 | 57 | 86 | 7.0 | 9.0 | 0.00 | 0.00 | 0.00 | 62 | |
| 20260510102513 | 57 | 97 | 9.0 | 9.0 | 0.00 | 0.00 | 0.00 | 61 | |
| 20260510102010 | 57 | 71 | 4.0 | 9.0 | 0.00 | 0.00 | 0.00 | 64 | |
| 20260510101511 | 57 | 105 | 11.0 | 13.0 | 0.00 | 0.00 | 0.00 | 62 | |
| 20260510101009 | 57 | 83 | 9.0 | 9.0 | 0.00 | 0.00 | 0.00 | 65 | |
| 20260510100510 | 57 | 84 | 11.0 | 13.0 | 0.00 | 0.00 | 0.00 | 64 | |
| 20260510100010 | 55 | 87 | 7.0 | 9.0 | 0.00 | 0.00 | 0.00 | 65 | |
| 20260510095511 | 55 | 87 | 7.0 | 11.0 | 0.00 | 0.00 | 0.00 | 65 | |
| 20260510095010 | 55 | 113 | 9.0 | 13.0 | 0.00 | 0.00 | 0.00 | 65 | |
| 20260510094511 | 57 | 91 | 9.0 | 13.0 | 0.00 | 0.00 | 0.00 | 63 | |
| 20260510094010 | 55 | 78 | 9.0 | 11.0 | 0.00 | 0.00 | 0.00 | 65 | |
| 20260510093510 | 57 | 74 | 9.0 | 11.0 | 0.00 | 0.00 | 0.00 | 66 | |
| 20260510093010 | 55 | 87 | 9.0 | 11.0 | 0.00 | 0.00 | 0.00 | 65 | |
| 20260510092510 | 55 | 93 | 9.0 | 11.0 | 0.00 | 0.00 | 0.00 | 65 | |
| 20260510092012 | 54 | 81 | 4.0 | 9.0 | 0.00 | 0.00 | 0.00 | 67 | |
| 20260510091511 | 55 | 107 | 11.0 | 13.0 | 0.00 | 0.00 | 0.00 | 66 | |
| 20260510091009 | 54 | 109 | 11.0 | 13.0 | 0.00 | 0.00 | 0.00 | 65 | |
| 20260510090510 | 55 | 92 | 9.0 | 11.0 | 0.00 | 0.00 | 0.00 | 65 | |
| 20260510090013 | 55 | 87 | 11.0 | 13.0 | 0.00 | 0.00 | 0.00 | 64 | |
| 20260510085510 | 54 | 102 | 7.0 | 9.0 | 0.00 | 0.00 | 0.00 | 66 | |
| 20260510085011 | 54 | 102 | 4.0 | 7.0 | 0.00 | 0.00 | 0.00 | 68 | |
| 20260510084511 | 54 | 88 | 4.0 | 7.0 | 0.00 | 0.00 | 0.00 | 68 | |
| 20260510084010 | 54 | 66 | 4.0 | 7.0 | 0.00 | 0.00 | 0.00 | 68 | |
| 20260510083510 | 54 | 109 | 4.0 | 4.0 | 0.00 | 0.00 | 0.00 | 68 | |
| 20260510083010 | 54 | 92 | 4.0 | 7.0 | 0.00 | 0.00 | 0.00 | 68 | |
| 20260510082510 | 54 | 101 | 4.0 | 9.0 | 0.00 | 0.00 | 0.00 | 69 | |
| 20260510082014 | 52 | 116 | 7.0 | 9.0 | 0.00 | 0.00 | 0.00 | 68 | |
| 20260510081510 | 52 | 76 | 4.0 | 9.0 | 0.00 | 0.00 | 0.00 | 69 | |
| 20260510081010 | 52 | 95 | 7.0 | 9.0 | 0.00 | 0.00 | 0.00 | 69 | |
| 20260510080510 | 52 | 113 | 7.0 | 7.0 | 0.00 | 0.00 | 0.00 | 68 | |
| 20260510080012 | 52 | 104 | 9.0 | 11.0 | 0.00 | 0.00 | 0.00 | 69 | |
| 20260510075511 | 52 | 107 | 7.0 | 9.0 | 0.00 | 0.00 | 0.00 | 70 | |
| 20260510075010 | 52 | 89 | 4.0 | 9.0 | 0.00 | 0.00 | 0.00 | 70 | |
| 20260510074510 | 52 | 109 | 7.0 | 7.0 | 0.00 | 0.00 | 0.00 | 68 | |
| 20260510074011 | 52 | 101 | 7.0 | 7.0 | 0.00 | 0.00 | 0.00 | 69 | |
| 20260510073511 | 52 | 110 | 7.0 | 7.0 | 0.00 | 0.00 | 0.00 | 70 | |
| 20260510073010 | 52 | 107 | 7.0 | 9.0 | 0.00 | 0.00 | 0.00 | 69 | |
| 20260510072511 | 52 | 107 | 4.0 | 7.0 | 0.00 | 0.00 | 0.00 | 69 | |
| 20260510072011 | 52 | 100 | 7.0 | 9.0 | 0.00 | 0.00 | 0.00 | 69 | |
| 20260510071511 | 52 | 100 | 7.0 | 7.0 | 0.00 | 0.00 | 0.00 | 71 | |
| 20260510071010 | 50 | 98 | 4.0 | 7.0 | 0.00 | 0.00 | 0.00 | 72 | |
| 20260510070511 | 50 | 105 | 7.0 | 9.0 | 0.00 | 0.00 | 0.00 | 72 | |
| 20260510070010 | 50 | 95 | 4.0 | 7.0 | 0.00 | 0.00 | 0.00 | 72 | |
| 20260510065510 | 50 | 94 | 4.0 | 7.0 | 0.00 | 0.00 | 0.00 | 72 | |
| 20260510065010 | 50 | 106 | 4.0 | 7.0 | 0.00 | 0.00 | 0.00 | 73 | |
| 20260510064510 | 50 | 123 | 7.0 | 7.0 | 0.00 | 0.00 | 0.00 | 73 | |
| 20260510064010 | 50 | 104 | 4.0 | 7.0 | 0.00 | 0.00 | 0.00 | 73 | |
| 20260510063511 | 50 | 121 | 7.0 | 9.0 | 0.00 | 0.00 | 0.00 | 73 | |
| 20260510063011 | 50 | 119 | 7.0 | 9.0 | 0.00 | 0.00 | 0.00 | 73 | |
| 20260510062511 | 50 | 107 | 2.0 | 4.0 | 0.00 | 0.00 | 0.00 | 74 | |
| 20260510062014 | 50 | 115 | 4.0 | 4.0 | 0.00 | 0.00 | 0.00 | 75 | |
| 20260510061515 | 48 | 102 | 4.0 | 7.0 | 0.00 | 0.00 | 0.00 | 75 | |
| 20260510061009 | 48 | 124 | 4.0 | 4.0 | 0.00 | 0.00 | 0.00 | 75 | |
| 20260510060511 | 48 | 80 | 2.0 | 4.0 | 0.00 | 0.00 | 0.00 | 75 | |
| 20260510060011 | 48 | 95 | 2.0 | 4.0 | 0.00 | 0.00 | 0.00 | 76 | |
| 20260510055010 | 48 | 146 | 0.0 | 2.0 | 0.00 | 0.00 | 0.00 | 77 | |
| 20260510054511 | 46 | 109 | 4.0 | 4.0 | 0.00 | 0.00 | 0.00 | 78 | |
| 20260510054010 | 46 | 126 | 4.0 | 4.0 | 0.00 | 0.00 | 0.00 | 79 | |
| 20260510053510 | 46 | 120 | 4.0 | 4.0 | 0.00 | 0.00 | 0.00 | 79 | |
| 20260510053010 | 45 | 112 | 7.0 | 7.0 | 0.00 | 0.00 | 0.00 | 79 | |
| 20260510052511 | 45 | 97 | 7.0 | 9.0 | 0.00 | 0.00 | 0.00 | 79 | |
| 20260510052015 | 45 | 98 | 7.0 | 9.0 | 0.00 | 0.00 | 0.00 | 78 | |
| 20260510051510 | 45 | 96 | 11.0 | 11.0 | 0.00 | 0.00 | 0.00 | 78 | |
| 20260510051011 | 45 | 92 | 9.0 | 11.0 | 0.00 | 0.00 | 0.00 | 78 | |
| 20260510050510 | 45 | 90 | 9.0 | 11.0 | 0.00 | 0.00 | 0.00 | 78 | |
| 20260510050011 | 43 | 82 | 9.0 | 11.0 | 0.00 | 0.00 | 0.00 | 78 | |
| 20260510045510 | 45 | 93 | 9.0 | 9.0 | 0.00 | 0.00 | 0.00 | 78 | |
| 20260510045011 | 45 | 79 | 9.0 | 11.0 | 0.00 | 0.00 | 0.00 | 78 | |
| 20260510044510 | 45 | 99 | 9.0 | 9.0 | 0.00 | 0.00 | 0.00 | 78 | |
| 20260510044017 | 45 | 86 | 7.0 | 9.0 | 0.00 | 0.00 | 0.00 | 78 | |
| 20260510043517 | 43 | 88 | 7.0 | 9.0 | 0.00 | 0.00 | 0.00 | 78 | |
| 20260510043010 | 43 | 90 | 9.0 | 11.0 | 0.00 | 0.00 | 0.00 | 78 | |
| 20260510042010 | 43 | 93 | 11.0 | 13.0 | 0.00 | 0.00 | 0.00 | 78 | |
| 20260510041510 | 43 | 84 | 11.0 | 13.0 | 0.00 | 0.00 | 0.00 | 78 | |
| 20260510041010 | 43 | 83 | 13.0 | 13.0 | 0.00 | 0.00 | 0.00 | 78 | |
| 20260510040511 | 43 | 86 | 11.0 | 13.0 | 0.00 | 0.00 | 0.00 | 78 | |
| 20260510040011 | 43 | 83 | 11.0 | 13.0 | 0.00 | 0.00 | 0.00 | 78 | |
| 20260510035510 | 43 | 86 | 11.0 | 13.0 | 0.00 | 0.00 | 0.00 | 78 | |
| 20260510035011 | 43 | 91 | 11.0 | 13.0 | 0.00 | 0.00 | 0.00 | 78 | |
| 20260510034511 | 43 | 88 | 13.0 | 16.0 | 0.00 | 0.00 | 0.00 | 78 | |
| 20260510034010 | 43 | 98 | 11.0 | 13.0 | 0.00 | 0.00 | 0.00 | 78 | |
| 20260510033511 | 43 | 92 | 13.0 | 16.0 | 0.00 | 0.00 | 0.00 | 78 | |
| 20260510033010 | 45 | 86 | 13.0 | 16.0 | 0.00 | 0.00 | 0.00 | 77 | |
| 20260510032511 | 45 | 85 | 11.0 | 13.0 | 0.00 | 0.00 | 0.00 | 77 | |
| 20260510032011 | 45 | 86 | 11.0 | 11.0 | 0.00 | 0.00 | 0.00 | 77 | |
| 20260510031510 | 45 | 80 | 11.0 | 13.0 | 0.00 | 0.00 | 0.00 | 77 | |
| 20260510031010 | 45 | 84 | 11.0 | 13.0 | 0.00 | 0.00 | 0.00 | 77 | |
| 20260510030510 | 45 | 90 | 9.0 | 11.0 | 0.00 | 0.00 | 0.00 | 77 | |
| 20260510030010 | 45 | 83 | 9.0 | 9.0 | 0.00 | 0.00 | 0.00 | 77 | |
| 20260510025511 | 45 | 78 | 9.0 | 11.0 | 0.00 | 0.00 | 0.00 | 77 | |
| 20260510025011 | 45 | 80 | 9.0 | 11.0 | 0.00 | 0.00 | 0.00 | 77 | |
| 20260510024511 | 45 | 84 | 11.0 | 13.0 | 0.00 | 0.00 | 0.00 | 77 | |
| 20260510024010 | 45 | 89 | 11.0 | 13.0 | 0.00 | 0.00 | 0.00 | 77 | |
| 20260510023511 | 45 | 93 | 9.0 | 11.0 | 0.00 | 0.00 | 0.00 | 77 | |
| 20260510023011 | 45 | 85 | 9.0 | 11.0 | 0.00 | 0.00 | 0.00 | 76 | |
| 20260510022510 | 45 | 82 | 9.0 | 11.0 | 0.00 | 0.00 | 0.00 | 76 | |
| 20260510021511 | 45 | 86 | 11.0 | 13.0 | 0.00 | 0.00 | 0.00 | 76 | |
| 20260510021009 | 45 | 73 | 11.0 | 13.0 | 0.00 | 0.00 | 0.00 | 76 | |
| 20260510020510 | 45 | 76 | 11.0 | 11.0 | 0.00 | 0.00 | 0.00 | 76 | |
| 20260510020010 | 45 | 76 | 11.0 | 13.0 | 0.00 | 0.00 | 0.00 | 75 | |
| 20260510015510 | 45 | 83 | 11.0 | 11.0 | 0.00 | 0.00 | 0.00 | 75 | |
| 20260510015010 | 45 | 81 | 7.0 | 9.0 | 0.00 | 0.00 | 0.00 | 74 | |
| 20260510014510 | 46 | 86 | 7.0 | 7.0 | 0.00 | 0.00 | 0.00 | 74 | |
| 20260510014010 | 46 | 92 | 7.0 | 7.0 | 0.00 | 0.00 | 0.00 | 74 | |
| 20260510013511 | 46 | 80 | 4.0 | 7.0 | 0.00 | 0.00 | 0.00 | 74 | |
| 20260510013010 | 46 | 77 | 7.0 | 7.0 | 0.00 | 0.00 | 0.00 | 74 | |
| 20260510012510 | 46 | 72 | 7.0 | 7.0 | 0.00 | 0.00 | 0.00 | 74 | |
| 20260510012010 | 46 | 72 | 7.0 | 7.0 | 0.00 | 0.00 | 0.00 | 73 | |
| 20260510011510 | 46 | 70 | 7.0 | 9.0 | 0.00 | 0.00 | 0.00 | 73 | |
| 20260510011017 | 46 | 79 | 7.0 | 9.0 | 0.00 | 0.00 | 0.00 | 73 | |
| 20260510010511 | 46 | 85 | 7.0 | 9.0 | 0.00 | 0.00 | 0.00 | 73 | |
| 20260510010010 | 46 | 91 | 7.0 | 7.0 | 0.00 | 0.00 | 0.00 | 73 | |
| 20260510005511 | 46 | 87 | 9.0 | 11.0 | 0.00 | 0.00 | 0.00 | 73 | |
| 20260510005009 | 46 | 95 | 7.0 | 7.0 | 0.00 | 0.00 | 0.00 | 73 | |
| 20260510004511 | 46 | 89 | 9.0 | 9.0 | 0.00 | 0.00 | 0.00 | 73 | |
| 20260510004010 | 46 | 91 | 9.0 | 11.0 | 0.00 | 0.00 | 0.00 | 73 | |
| 20260510003510 | 46 | 96 | 9.0 | 11.0 | 0.00 | 0.00 | 0.00 | 73 | |
| 20260510003010 | 46 | 91 | 9.0 | 9.0 | 0.00 | 0.00 | 0.00 | 73 | |
| 20260510002510 | 46 | 94 | 9.0 | 11.0 | 0.00 | 0.00 | 0.00 | 73 | |
| 20260510002014 | 46 | 86 | 9.0 | 11.0 | 0.00 | 0.00 | 0.00 | 73 | |
| 20260510001510 | 46 | 93 | 9.0 | 9.0 | 0.00 | 0.00 | 0.00 | 73 | |
| 20260510001010 | 46 | 85 | 9.0 | 11.0 | 0.00 | 0.00 | 0.00 | 73 | |
| 20260510000510 | 46 | 88 | 11.0 | 13.0 | 0.00 | 0.00 | 0.00 | 73 | |
| 20260510000011 | 46 | 89 | 11.0 | 11.0 | 0.00 | 0.00 | 0.00 | 73 | |
| 20260509235510 | 46 | 92 | 9.0 | 11.0 | 0.00 | 0.00 | 0.00 | 73 | |
| 20260509235010 | 46 | 94 | 9.0 | 9.0 | 0.00 | 0.00 | 0.00 | 73 | |
| 20260509234510 | 46 | 92 | 9.0 | 11.0 | 0.00 | 0.00 | 0.00 | 73 | |
| 20260509234009 | 46 | 93 | 9.0 | 11.0 | 0.00 | 0.00 | 0.00 | 73 | |
| 20260509233511 | 46 | 98 | 11.0 | 11.0 | 0.00 | 0.00 | 0.00 | 73 | |
| 20260509233010 | 46 | 100 | 9.0 | 11.0 | 0.00 | 0.00 | 0.00 | 73 | |
| 20260509232511 | 46 | 103 | 9.0 | 11.0 | 0.00 | 0.00 | 0.00 | 72 | |
| 20260509232012 | 48 | 96 | 11.0 | 11.0 | 0.00 | 0.00 | 0.00 | 72 | |
| 20260509231511 | 48 | 99 | 11.0 | 11.0 | 0.00 | 0.00 | 0.00 | 72 | |
| 20260509231009 | 48 | 103 | 11.0 | 16.0 | 0.00 | 0.00 | 0.00 | 72 | |
| 20260509230511 | 48 | 98 | 13.0 | 13.0 | 0.00 | 0.00 | 0.00 | 72 | |
| 20260509230010 | 48 | 95 | 13.0 | 16.0 | 0.00 | 0.00 | 0.00 | 72 | |
| 20260509225511 | 48 | 103 | 13.0 | 13.0 | 0.00 | 0.00 | 0.00 | 72 | |
| 20260509225010 | 48 | 99 | 13.0 | 16.0 | 0.00 | 0.00 | 0.00 | 72 | |
| 20260509224510 | 48 | 98 | 13.0 | 16.0 | 0.00 | 0.00 | 0.00 | 71 | |
| 20260509224011 | 48 | 103 | 13.0 | 16.0 | 0.00 | 0.00 | 0.00 | 71 | |
| 20260509223511 | 48 | 104 | 16.0 | 18.0 | 0.00 | 0.00 | 0.00 | 71 | |
| 20260509223011 | 48 | 101 | 16.0 | 18.0 | 0.00 | 0.00 | 0.00 | 71 | |
| 20260509222512 | 48 | 97 | 13.0 | 16.0 | 0.00 | 0.00 | 0.00 | 71 | |
| 20260509222011 | 48 | 94 | 16.0 | 18.0 | 0.00 | 0.00 | 0.00 | 72 | |
| 20260509221510 | 48 | 96 | 16.0 | 18.0 | 0.00 | 0.00 | 0.00 | 71 | |
| 20260509221011 | 48 | 98 | 16.0 | 18.0 | 0.00 | 0.00 | 0.00 | 72 | |
| 20260509220510 | 48 | 99 | 16.0 | 18.0 | 0.00 | 0.00 | 0.00 | 72 | |
| 20260509220011 | 48 | 97 | 16.0 | 16.0 | 0.00 | 0.00 | 0.00 | 72 | |
| 20260509215510 | 48 | 98 | 16.0 | 16.0 | 0.00 | 0.00 | 0.00 | 72 | |
| 20260509214010 | 48 | 97 | 16.0 | 18.0 | 0.00 | 0.00 | 0.00 | 72 | |
| 20260509213509 | 48 | 99 | 16.0 | 18.0 | 0.00 | 0.00 | 0.00 | 71 | |
| 20260509213010 | 48 | 99 | 18.0 | 20.0 | 0.00 | 0.00 | 0.00 | 71 | |
| 20260509212510 | 48 | 101 | 18.0 | 20.0 | 0.00 | 0.00 | 0.00 | 71 | |
| 20260509212012 | 48 | 96 | 13.0 | 16.0 | 0.00 | 0.00 | 0.00 | 71 | |
| 20260509211510 | 48 | 99 | 16.0 | 18.0 | 0.00 | 0.00 | 0.00 | 71 | |
| 20260509211010 | 48 | 102 | 18.0 | 18.0 | 0.00 | 0.00 | 0.00 | 71 | |
| 20260509210510 | 48 | 106 | 16.0 | 18.0 | 0.00 | 0.00 | 0.00 | 70 | |
| 20260509210010 | 48 | 105 | 16.0 | 18.0 | 0.00 | 0.00 | 0.00 | 70 | |
| 20260509205510 | 48 | 103 | 18.0 | 20.0 | 0.00 | 0.00 | 0.00 | 70 | |
| 20260509205010 | 48 | 98 | 16.0 | 18.0 | 0.00 | 0.00 | 0.00 | 70 | |
| 20260509204510 | 48 | 99 | 16.0 | 18.0 | 0.00 | 0.00 | 0.00 | 70 | |
| 20260509204010 | 48 | 95 | 13.0 | 18.0 | 0.00 | 0.00 | 0.00 | 69 | |
| 20260509203510 | 50 | 90 | 13.0 | 16.0 | 0.00 | 0.00 | 0.00 | 69 | |
| 20260509203011 | 50 | 94 | 18.0 | 20.0 | 0.00 | 0.00 | 0.00 | 69 | |
| 20260509202511 | 50 | 89 | 18.0 | 20.0 | 0.00 | 0.00 | 0.00 | 69 | |
| 20260509202012 | 50 | 93 | 16.0 | 20.0 | 0.00 | 0.00 | 0.00 | 68 | |
| 20260509201511 | 50 | 87 | 18.0 | 20.0 | 0.00 | 0.00 | 0.00 | 69 | |
| 20260509201011 | 50 | 90 | 18.0 | 20.0 | 0.00 | 0.00 | 0.00 | 68 | |
| 20260509200511 | 50 | 94 | 20.0 | 22.0 | 0.00 | 0.00 | 0.00 | 68 | |
| 20260509200010 | 50 | 92 | 20.0 | 22.0 | 0.00 | 0.00 | 0.00 | 67 | |
| 20260509195510 | 50 | 93 | 20.0 | 22.0 | 0.00 | 0.00 | 0.00 | 66 | |
| 20260509195010 | 50 | 94 | 18.0 | 20.0 | 0.00 | 0.00 | 0.00 | 66 | |
| 20260509194511 | 50 | 95 | 18.0 | 22.0 | 0.00 | 0.00 | 0.00 | 65 | |
| 20260509194010 | 50 | 88 | 20.0 | 22.0 | 0.00 | 0.00 | 0.00 | 65 | |
| 20260509193511 | 50 | 91 | 18.0 | 20.0 | 0.00 | 0.00 | 0.00 | 64 | |
| 20260509193010 | 50 | 91 | 18.0 | 22.0 | 0.00 | 0.00 | 0.00 | 64 | |
| 20260509192510 | 50 | 82 | 20.0 | 22.0 | 0.00 | 0.00 | 0.00 | 64 | |
| 20260509192010 | 50 | 82 | 18.0 | 20.0 | 0.00 | 0.00 | 0.00 | 63 | |
| 20260509191510 | 50 | 79 | 20.0 | 25.0 | 0.00 | 0.00 | 0.00 | 63 |